Location: Sungai Bunut
(2.6333°N, 113.7333°E)
Time: 07:40:54
(UTC+00:00)

Transit 2A Rocket - Pass Details

Date: 12 December 2023
Orbit: 590 x 905 km, 66.7° (Epoch: 04 March)

Event Time Altitude Azimuth Distance (km) Brightness Sun altitude
Rises 22:11:39 0° 335° (NNW) 3,004 7.6 -2.7°
Reaches altitude 10° 22:13:52 10° 332° (NNW) 2,137 6.9 -2.2°
Maximum altitude 22:18:42 67° 250° (WSW) 801 5.0 -1.1°
Drops below altitude 10° 22:24:03 10° 168° (SSE) 2,354 8.1 0.2°
Sets 22:26:36 0° 165° (SSE) 3,336 8.9 0.7°
